Time,TemperatureF,DewpointF,PressureIn,WindDirection,WindDirectionDegrees,WindSpeedMPH,WindSpeedGustMPH,Humidity,HourlyPrecipIn,Conditions,Clouds,dailyrainin,SolarRadiationWatts/m^2,SoftwareType,DateUTC
2013-01-06 00:01:00,43.4,39.8,30.17,West,274,9.0,11.0,87,0.00,,,0.00,0,Wunderground v.1.15,2013-01-06 08:01:00,
2013-01-06 00:06:00,43.3,39.7,30.17,West,267,6.0,14.0,87,0.00,,,0.00,0,Wunderground v.1.15,2013-01-06 08:06:00,
2013-01-06 00:11:00,43.3,39.7,30.17,WSW,254,9.0,9.0,87,0.00,,,0.00,0,Wunderground v.1.15,2013-01-06 08:11:00,
2013-01-06 00:16:00,43.3,40.0,30.17,SW,223,6.0,13.0,88,0.00,,,0.00,0,Wunderground v.1.15,2013-01-06 08:16:00,
2013-01-06 00:21:00,43.3,40.0,30.17,WSW,237,6.0,6.0,88,0.00,,,0.00,0,Wunderground v.1.15,2013-01-06 08:21:00,
2013-01-06 00:26:00,43.3,40.0,30.17,WSW,241,6.0,12.0,88,0.00,,,0.00,0,Wunderground v.1.15,2013-01-06 08:26:00,
2013-01-06 00:31:00,43.3,40.0,30.17,SW,219,10.0,10.0,88,0.00,,,0.00,0,Wunderground v.1.15,2013-01-06 08:31:00,
2013-01-06 00:36:00,43.3,40.0,30.17,West,262,4.0,10.0,88,0.00,,,0.00,0,Wunderground v.1.15,2013-01-06 08:36:00,
2013-01-06 00:41:00,43.3,40.0,30.17,WSW,245,3.0,5.0,88,0.00,,,0.00,0,Wunderground v.1.15,2013-01-06 08:41:00,
2013-01-06 00:46:00,43.2,39.9,30.17,West,272,6.0,6.0,88,0.00,,,0.00,0,Wunderground v.1.15,2013-01-06 08:46:00,
2013-01-06 00:51:00,43.2,39.9,30.17,West,263,11.0,11.0,88,0.00,,,0.00,0,Wunderground v.1.15,2013-01-06 08:51:00,
2013-01-06 00:56:00,43.2,39.9,30.17,WSW,244,9.0,12.0,88,0.00,,,0.00,0,Wunderground v.1.15,2013-01-06 08:56:00,
2013-01-06 01:01:00,43.1,39.8,30.17,West,262,5.0,7.0,88,0.00,,,0.00,0,Wunderground v.1.15,2013-01-06 09:01:00,
2013-01-06 01:06:00,43.0,39.7,30.17,West,263,4.0,10.0,88,0.00,,,0.00,0,Wunderground v.1.15,2013-01-06 09:06:00,
2013-01-06 01:11:00,43.0,39.7,30.17,West,263,6.0,6.0,88,0.00,,,0.00,0,Wunderground v.1.15,2013-01-06 09:11:00,
2013-01-06 01:16:00,42.9,39.6,30.17,SW,225,9.0,9.0,88,0.00,,,0.00,0,Wunderground v.1.15,2013-01-06 09:16:00,
2013-01-06 01:21:00,42.9,39.9,30.17,WSW,252,7.0,11.0,89,0.00,,,0.00,0,Wunderground v.1.15,2013-01-06 09:21:00,
2013-01-06 01:26:00,43.0,40.0,30.17,West,270,10.0,14.0,89,0.00,,,0.00,0,Wunderground v.1.15,2013-01-06 09:26:00,
2013-01-06 01:31:00,43.0,40.0,30.17,West,269,4.0,12.0,89,0.00,,,0.00,0,Wunderground v.1.15,2013-01-06 09:31:00,
2013-01-06 01:36:00,43.0,40.0,30.17,West,263,8.0,13.0,89,0.00,,,0.00,0,Wunderground v.1.15,2013-01-06 09:36:00,
2013-01-06 01:41:00,43.0,39.7,30.17,West,261,6.0,11.0,88,0.00,,,0.00,0,Wunderground v.1.15,2013-01-06 09:41:00,
2013-01-06 01:46:00,42.9,39.6,30.18,West,264,8.0,11.0,88,0.00,,,0.00,0,Wunderground v.1.15,2013-01-06 09:46:00,
2013-01-06 01:51:00,42.9,39.6,30.18,WSW,257,3.0,7.0,88,0.00,,,0.00,0,Wunderground v.1.15,2013-01-06 09:51:00,
2013-01-06 01:56:00,42.9,39.6,30.18,WSW,251,5.0,12.0,88,0.00,,,0.00,0,Wunderground v.1.15,2013-01-06 09:56:00,
2013-01-06 02:01:00,42.8,39.2,30.19,WNW,282,1.0,6.0,87,0.00,,,0.00,0,Wunderground v.1.15,2013-01-06 10:01:00,
2013-01-06 02:06:00,42.8,39.5,30.19,WSW,241,5.0,11.0,88,0.00,,,0.00,0,Wunderground v.1.15,2013-01-06 10:06:00,
2013-01-06 02:11:00,42.8,39.5,30.19,WSW,254,10.0,11.0,88,0.00,,,0.00,0,Wunderground v.1.15,2013-01-06 10:11:00,
2013-01-06 02:16:00,42.8,39.5,30.19,West,259,5.0,11.0,88,0.00,,,0.00,0,Wunderground v.1.15,2013-01-06 10:16:00,
2013-01-06 02:21:00,42.8,39.5,30.19,WSW,242,5.0,8.0,88,0.00,,,0.00,0,Wunderground v.1.15,2013-01-06 10:21:00,
2013-01-06 02:26:00,42.7,39.4,30.19,WSW,254,6.0,11.0,88,0.00,,,0.00,0,Wunderground v.1.15,2013-01-06 10:26:00,
2013-01-06 02:31:00,42.7,39.4,30.19,WSW,245,5.0,7.0,88,0.00,,,0.00,0,Wunderground v.1.15,2013-01-06 10:31:00,
2013-01-06 02:36:00,42.7,39.7,30.19,West,263,4.0,8.0,89,0.00,,,0.00,0,Wunderground v.1.15,2013-01-06 10:36:00,
2013-01-06 02:41:00,42.7,39.7,30.19,WSW,246,5.0,7.0,89,0.00,,,0.00,0,Wunderground v.1.15,2013-01-06 10:41:00,
2013-01-06 02:46:00,42.7,39.4,30.19,WSW,249,3.0,7.0,88,0.00,,,0.00,0,Wunderground v.1.15,2013-01-06 10:46:00,
2013-01-06 02:51:00,42.4,39.4,30.19,SW,229,4.0,7.0,89,0.00,,,0.00,0,Wunderground v.1.15,2013-01-06 10:51:00,
2013-01-06 02:56:00,42.2,39.2,30.19,SW,234,5.0,7.0,89,0.00,,,0.00,0,Wunderground v.1.15,2013-01-06 10:56:00,
2013-01-06 03:01:00,42.0,39.0,30.19,West,260,2.0,6.0,89,0.00,,,0.00,0,Wunderground v.1.15,2013-01-06 11:01:00,
2013-01-06 03:06:00,41.8,39.1,30.19,SW,231,5.0,6.0,90,0.00,,,0.00,0,Wunderground v.1.15,2013-01-06 11:06:00,
2013-01-06 03:11:00,41.6,38.9,30.18,SW,235,3.0,6.0,90,0.00,,,0.00,0,Wunderground v.1.15,2013-01-06 11:11:00,
2013-01-06 03:16:00,41.4,38.7,30.18,SSW,209,3.0,7.0,90,0.00,,,0.00,0,Wunderground v.1.15,2013-01-06 11:16:00,
2013-01-06 03:21:00,41.3,38.6,30.18,SSW,194,7.0,7.0,90,0.00,,,0.00,0,Wunderground v.1.15,2013-01-06 11:21:00,
2013-01-06 03:26:00,41.1,38.7,30.18,SSW,208,1.0,7.0,91,0.00,,,0.00,0,Wunderground v.1.15,2013-01-06 11:26:00,
2013-01-06 03:31:00,41.0,38.6,30.18,SSW,211,1.0,5.0,91,0.00,,,0.00,0,Wunderground v.1.15,2013-01-06 11:31:00,
2013-01-06 03:36:00,41.0,38.6,30.18,SW,227,6.0,6.0,91,0.00,,,0.00,0,Wunderground v.1.15,2013-01-06 11:36:00,
2013-01-06 03:41:00,41.1,38.7,30.18,West,259,7.0,9.0,91,0.00,,,0.00,0,Wunderground v.1.15,2013-01-06 11:41:00,
2013-01-06 03:46:00,41.3,38.9,30.18,West,263,8.0,12.0,91,0.00,,,0.00,0,Wunderground v.1.15,2013-01-06 11:46:00,
2013-01-06 03:51:00,41.4,39.0,30.17,SW,236,8.0,10.0,91,0.00,,,0.00,0,Wunderground v.1.15,2013-01-06 11:51:00,
2013-01-06 03:56:00,41.6,38.9,30.17,West,275,7.0,11.0,90,0.00,,,0.00,0,Wunderground v.1.15,2013-01-06 11:56:00,
2013-01-06 04:01:00,41.6,38.9,30.17,West,275,7.0,14.0,90,0.00,,,0.00,0,Wunderground v.1.15,2013-01-06 12:01:00,
2013-01-06 04:06:00,41.7,39.0,30.17,WSW,252,5.0,14.0,90,0.00,,,0.00,0,Wunderground v.1.15,2013-01-06 12:06:00,
2013-01-06 04:11:00,41.9,39.2,30.17,West,272,7.0,10.0,90,0.00,,,0.00,0,Wunderground v.1.15,2013-01-06 12:11:00,
2013-01-06 04:16:00,41.9,38.9,30.17,West,267,4.0,10.0,89,0.00,,,0.00,0,Wunderground v.1.15,2013-01-06 12:16:00,
2013-01-06 04:21:00,41.9,38.9,30.17,West,269,10.0,12.0,89,0.00,,,0.00,0,Wunderground v.1.15,2013-01-06 12:21:00,
2013-01-06 04:26:00,41.9,38.9,30.17,WSW,238,8.0,13.0,89,0.00,,,0.00,0,Wunderground v.1.15,2013-01-06 12:26:00,
2013-01-06 04:31:00,41.9,38.9,30.16,West,261,9.0,15.0,89,0.00,,,0.00,0,Wunderground v.1.15,2013-01-06 12:31:00,
2013-01-06 04:36:00,41.9,38.9,30.16,SSW,211,8.0,15.0,89,0.00,,,0.00,0,Wunderground v.1.15,2013-01-06 12:36:00,
2013-01-06 04:41:00,41.9,38.9,30.16,SW,225,8.0,12.0,89,0.00,,,0.00,0,Wunderground v.1.15,2013-01-06 12:41:00,
2013-01-06 04:46:00,41.9,38.9,30.16,WSW,258,12.0,13.0,89,0.00,,,0.00,0,Wunderground v.1.15,2013-01-06 12:46:00,
2013-01-06 04:51:00,41.9,38.9,30.16,West,261,8.0,12.0,89,0.00,,,0.00,0,Wunderground v.1.15,2013-01-06 12:51:00,
2013-01-06 04:56:00,41.9,38.9,30.16,West,259,7.0,14.0,89,0.00,,,0.00,0,Wunderground v.1.15,2013-01-06 12:56:00,
2013-01-06 05:01:00,41.9,38.9,30.15,West,281,8.0,13.0,89,0.00,,,0.00,0,Wunderground v.1.15,2013-01-06 13:01:00,
2013-01-06 05:06:00,42.0,38.7,30.15,WSW,240,11.0,16.0,88,0.00,,,0.00,0,Wunderground v.1.15,2013-01-06 13:06:00,
2013-01-06 05:11:00,42.0,39.0,30.15,WSW,250,12.0,16.0,89,0.00,,,0.00,0,Wunderground v.1.15,2013-01-06 13:11:00,
2013-01-06 05:16:00,42.1,38.8,30.16,SW,216,10.0,16.0,88,0.00,,,0.00,0,Wunderground v.1.15,2013-01-06 13:16:00,
2013-01-06 05:21:00,42.2,38.9,30.16,WSW,258,9.0,14.0,88,0.00,,,0.00,0,Wunderground v.1.15,2013-01-06 13:21:00,
2013-01-06 05:26:00,42.4,39.1,30.16,WSW,257,7.0,14.0,88,0.00,,,0.00,0,Wunderground v.1.15,2013-01-06 13:26:00,
2013-01-06 05:31:00,42.5,39.2,30.15,West,273,12.0,13.0,88,0.00,,,0.00,0,Wunderground v.1.15,2013-01-06 13:31:00,
2013-01-06 05:36:00,42.8,39.2,30.15,West,265,8.0,17.0,87,0.00,,,0.00,0,Wunderground v.1.15,2013-01-06 13:36:00,
2013-01-06 05:41:00,43.0,39.4,30.15,West,271,9.0,16.0,87,0.00,,,0.00,0,Wunderground v.1.15,2013-01-06 13:41:00,
2013-01-06 05:46:00,43.1,39.2,30.16,WSW,246,13.0,16.0,86,0.00,,,0.00,0,Wunderground v.1.15,2013-01-06 13:46:00,
2013-01-06 05:51:00,43.0,39.1,30.16,SW,236,11.0,13.0,86,0.00,,,0.00,0,Wunderground v.1.15,2013-01-06 13:51:00,
2013-01-06 05:56:00,43.0,39.1,30.16,WNW,286,10.0,16.0,86,0.00,,,0.00,0,Wunderground v.1.15,2013-01-06 13:56:00,
2013-01-06 06:01:00,43.0,39.1,30.16,SW,235,9.0,14.0,86,0.00,,,0.00,0,Wunderground v.1.15,2013-01-06 14:01:00,
2013-01-06 06:06:00,43.1,39.2,30.16,SSW,208,8.0,14.0,86,0.00,,,0.00,0,Wunderground v.1.15,2013-01-06 14:06:00,
2013-01-06 06:11:00,43.1,39.2,30.16,West,262,9.0,17.0,86,0.00,,,0.00,0,Wunderground v.1.15,2013-01-06 14:11:00,
2013-01-06 06:16:00,43.1,38.9,30.16,SW,232,5.0,17.0,85,0.00,,,0.00,0,Wunderground v.1.15,2013-01-06 14:16:00,
2013-01-06 06:21:00,43.1,39.2,30.16,West,276,9.0,9.0,86,0.00,,,0.00,0,Wunderground v.1.15,2013-01-06 14:21:00,
2013-01-06 06:26:00,43.2,39.0,30.17,West,259,10.0,12.0,85,0.00,,,0.00,0,Wunderground v.1.15,2013-01-06 14:26:00,
2013-01-06 06:31:00,43.3,38.8,30.16,West,263,7.0,8.0,84,0.00,,,0.00,0,Wunderground v.1.15,2013-01-06 14:31:00,
2013-01-06 06:36:00,43.3,38.8,30.17,West,259,8.0,10.0,84,0.00,,,0.00,0,Wunderground v.1.15,2013-01-06 14:36:00,
2013-01-06 06:41:00,43.3,38.8,30.17,West,264,11.0,11.0,84,0.00,,,0.00,0,Wunderground v.1.15,2013-01-06 14:41:00,
2013-01-06 06:46:00,43.4,39.2,30.16,West,269,13.0,15.0,85,0.00,,,0.00,0,Wunderground v.1.15,2013-01-06 14:46:00,
2013-01-06 06:51:00,43.4,38.9,30.16,WSW,257,17.0,19.0,84,0.00,,,0.00,0,Wunderground v.1.15,2013-01-06 14:51:00,
2013-01-06 06:56:00,43.4,38.9,30.16,WSW,254,12.0,21.0,84,0.00,,,0.00,0,Wunderground v.1.15,2013-01-06 14:56:00,
2013-01-06 07:01:00,43.4,39.2,30.15,WSW,246,8.0,15.0,85,0.00,,,0.00,0,Wunderground v.1.15,2013-01-06 15:01:00,
2013-01-06 07:06:00,43.3,39.1,30.15,WSW,237,10.0,17.0,85,0.00,,,0.00,0,Wunderground v.1.15,2013-01-06 15:06:00,
2013-01-06 07:11:00,43.3,39.1,30.16,WSW,253,12.0,13.0,85,0.00,,,0.00,0,Wunderground v.1.15,2013-01-06 15:11:00,
2013-01-06 07:16:00,43.2,39.0,30.16,SW,226,5.0,16.0,85,0.00,,,0.00,0,Wunderground v.1.15,2013-01-06 15:16:00,
2013-01-06 07:21:00,43.2,39.0,30.16,WSW,256,13.0,14.0,85,0.00,,,0.00,0,Wunderground v.1.15,2013-01-06 15:21:00,
2013-01-06 07:26:00,43.2,39.0,30.15,WSW,254,6.0,18.0,85,0.00,,,0.00,0,Wunderground v.1.15,2013-01-06 15:26:00,
2013-01-06 07:31:00,43.1,39.2,30.16,WSW,243,8.0,17.0,86,0.00,,,0.00,0,Wunderground v.1.15,2013-01-06 15:31:00,
2013-01-06 07:36:00,43.1,39.2,30.16,West,267,11.0,17.0,86,0.00,,,0.00,0,Wunderground v.1.15,2013-01-06 15:36:00,
2013-01-06 07:41:00,43.1,39.2,30.17,WSW,244,12.0,14.0,86,0.00,,,0.00,0,Wunderground v.1.15,2013-01-06 15:41:00,
2013-01-06 07:46:00,43.1,39.2,30.17,WSW,257,5.0,14.0,86,0.00,,,0.00,0,Wunderground v.1.15,2013-01-06 15:46:00,
2013-01-06 07:51:00,42.9,39.0,30.17,WNW,286,9.0,9.0,86,0.00,,,0.00,0,Wunderground v.1.15,2013-01-06 15:51:00,
2013-01-06 07:56:00,42.9,39.0,30.17,SW,223,7.0,15.0,86,0.00,,,0.00,0,Wunderground v.1.15,2013-01-06 15:56:00,
2013-01-06 08:01:00,43.0,39.1,30.17,SW,229,6.0,9.0,86,0.00,,,0.00,5,Wunderground v.1.15,2013-01-06 16:01:00,
2013-01-06 08:06:00,42.9,39.0,30.17,West,275,11.0,12.0,86,0.00,,,0.00,11,Wunderground v.1.15,2013-01-06 16:06:00,
2013-01-06 08:11:00,42.9,39.0,30.17,WSW,250,8.0,11.0,86,0.00,,,0.00,14,Wunderground v.1.15,2013-01-06 16:11:00,
2013-01-06 08:16:00,42.9,39.0,30.17,West,264,10.0,19.0,86,0.00,,,0.00,18,Wunderground v.1.15,2013-01-06 16:16:00,
2013-01-06 08:21:00,42.9,39.3,30.17,West,279,11.0,12.0,87,0.00,,,0.00,18,Wunderground v.1.15,2013-01-06 16:21:00,
2013-01-06 08:26:00,42.9,39.3,30.18,WSW,244,9.0,12.0,87,0.00,,,0.00,16,Wunderground v.1.15,2013-01-06 16:26:00,
2013-01-06 08:31:00,42.9,39.3,30.18,WSW,247,8.0,14.0,87,0.00,,,0.00,16,Wunderground v.1.15,2013-01-06 16:31:00,
2013-01-06 08:36:00,43.0,39.4,30.18,West,268,7.0,14.0,87,0.00,,,0.00,14,Wunderground v.1.15,2013-01-06 16:36:00,
2013-01-06 08:41:00,43.0,39.4,30.18,West,262,7.0,7.0,87,0.00,,,0.00,19,Wunderground v.1.15,2013-01-06 16:41:00,
2013-01-06 08:46:00,43.1,39.5,30.18,West,271,10.0,16.0,87,0.00,,,0.00,25,Wunderground v.1.15,2013-01-06 16:46:00,
2013-01-06 08:51:00,43.2,39.3,30.18,West,266,9.0,16.0,86,0.00,,,0.00,37,Wunderground v.1.15,2013-01-06 16:51:00,
2013-01-06 08:56:00,43.4,39.5,30.18,West,272,11.0,16.0,86,0.00,,,0.00,54,Wunderground v.1.15,2013-01-06 16:56:00,
2013-01-06 09:01:00,43.5,39.6,30.18,West,275,11.0,16.0,86,0.00,,,0.00,62,Wunderground v.1.15,2013-01-06 17:01:00,
2013-01-06 09:06:00,43.6,39.4,30.18,WSW,240,5.0,17.0,85,0.00,,,0.00,77,Wunderground v.1.15,2013-01-06 17:06:00,
2013-01-06 09:11:00,43.7,39.5,30.18,SW,219,6.0,9.0,85,0.00,,,0.00,62,Wunderground v.1.15,2013-01-06 17:11:00,
2013-01-06 09:16:00,43.8,39.6,30.19,WSW,243,6.0,11.0,85,0.00,,,0.00,58,Wunderground v.1.15,2013-01-06 17:16:00,
2013-01-06 09:20:00,43.8,39.6,30.18,SSW,213,1.0,7.0,85,0.00,,,0.00,39,Wunderground v.1.15,2013-01-06 17:20:00,
2013-01-06 09:25:00,43.7,39.8,30.18,West,261,5.0,12.0,86,0.00,,,0.00,60,Wunderground v.1.15,2013-01-06 17:25:00,
2013-01-06 09:30:00,43.6,39.7,30.19,WSW,240,4.0,5.0,86,0.00,,,0.00,74,Wunderground v.1.15,2013-01-06 17:30:00,
2013-01-06 09:35:00,43.6,39.7,30.19,West,260,5.0,12.0,86,0.00,,,0.00,81,Wunderground v.1.15,2013-01-06 17:35:00,
2013-01-06 09:40:00,43.7,39.8,30.19,WSW,253,1.0,5.0,86,0.00,,,0.00,69,Wunderground v.1.15,2013-01-06 17:40:00,
2013-01-06 09:45:00,43.6,39.7,30.19,WSW,239,5.0,8.0,86,0.00,,,0.00,86,Wunderground v.1.15,2013-01-06 17:45:00,
2013-01-06 09:50:00,43.6,39.7,30.19,WSW,242,9.0,12.0,86,0.00,,,0.00,93,Wunderground v.1.15,2013-01-06 17:50:00,
2013-01-06 09:55:00,43.6,39.7,30.19,West,268,12.0,16.0,86,0.00,,,0.00,102,Wunderground v.1.15,2013-01-06 17:55:00,
2013-01-06 10:00:00,43.6,40.0,30.19,West,260,10.0,11.0,87,0.00,,,0.00,118,Wunderground v.1.15,2013-01-06 18:00:00,
2013-01-06 10:05:00,43.6,39.7,30.19,West,269,6.0,14.0,86,0.00,,,0.00,111,Wunderground v.1.15,2013-01-06 18:05:00,
2013-01-06 10:10:00,43.7,39.8,30.19,SW,225,12.0,13.0,86,0.00,,,0.00,109,Wunderground v.1.15,2013-01-06 18:10:00,
2013-01-06 10:15:00,43.8,39.9,30.20,West,267,7.0,14.0,86,0.00,,,0.00,83,Wunderground v.1.15,2013-01-06 18:15:00,
2013-01-06 10:20:00,43.8,39.9,30.20,West,279,7.0,11.0,86,0.00,,,0.00,76,Wunderground v.1.15,2013-01-06 18:20:00,
2013-01-06 10:25:00,44.0,39.8,30.20,West,277,9.0,12.0,85,0.00,,,0.00,76,Wunderground v.1.15,2013-01-06 18:25:00,
2013-01-06 10:30:00,44.1,39.9,30.20,West,259,9.0,12.0,85,0.00,,,0.00,81,Wunderground v.1.15,2013-01-06 18:30:00,
2013-01-06 10:35:00,44.2,40.0,30.20,WSW,246,5.0,12.0,85,0.00,,,0.00,83,Wunderground v.1.15,2013-01-06 18:35:00,
2013-01-06 10:40:00,44.3,39.8,30.20,West,265,9.0,10.0,84,0.00,,,0.00,70,Wunderground v.1.15,2013-01-06 18:40:00,
2013-01-06 10:45:00,44.3,39.8,30.19,West,272,5.0,12.0,84,0.00,,,0.00,83,Wunderground v.1.15,2013-01-06 18:45:00,
2013-01-06 10:50:00,44.5,40.3,30.19,WSW,257,5.0,8.0,85,0.00,,,0.00,76,Wunderground v.1.15,2013-01-06 18:50:00,
2013-01-06 10:55:00,44.5,40.3,30.19,West,274,4.0,11.0,85,0.00,,,0.00,79,Wunderground v.1.15,2013-01-06 18:55:00,
2013-01-06 11:00:00,44.6,40.4,30.19,SSW,211,7.0,8.0,85,0.00,,,0.00,97,Wunderground v.1.15,2013-01-06 19:00:00,
2013-01-06 11:05:00,44.6,40.4,30.19,West,269,8.0,9.0,85,0.00,,,0.00,81,Wunderground v.1.15,2013-01-06 19:05:00,
2013-01-06 11:10:00,44.6,40.4,30.19,WSW,247,9.0,9.0,85,0.00,,,0.00,102,Wunderground v.1.15,2013-01-06 19:10:00,
2013-01-06 11:15:00,44.6,40.4,30.18,WSW,245,8.0,9.0,85,0.00,,,0.00,93,Wunderground v.1.15,2013-01-06 19:15:00,
2013-01-06 11:20:00,44.7,40.5,30.18,SW,219,6.0,7.0,85,0.00,,,0.00,111,Wunderground v.1.15,2013-01-06 19:20:00,
2013-01-06 11:25:00,44.8,40.6,30.18,WSW,248,6.0,8.0,85,0.00,,,0.00,113,Wunderground v.1.15,2013-01-06 19:25:00,
2013-01-06 11:30:00,45.0,40.5,30.18,WSW,255,10.0,10.0,84,0.00,,,0.00,128,Wunderground v.1.15,2013-01-06 19:30:00,
2013-01-06 11:35:00,45.2,40.7,30.17,West,275,6.0,11.0,84,0.00,,,0.00,128,Wunderground v.1.15,2013-01-06 19:35:00,
2013-01-06 11:40:00,45.4,40.5,30.17,SW,235,7.0,8.0,83,0.00,,,0.00,121,Wunderground v.1.15,2013-01-06 19:40:00,
2013-01-06 11:45:00,45.6,40.4,30.16,WSW,240,9.0,11.0,82,0.00,,,0.00,127,Wunderground v.1.15,2013-01-06 19:45:00,
2013-01-06 11:51:00,45.7,40.2,30.16,SSW,213,7.0,11.0,81,0.00,,,0.00,146,Wunderground v.1.15,2013-01-06 19:51:00,
2013-01-06 11:56:00,45.8,40.3,30.16,West,265,10.0,12.0,81,0.00,,,0.00,142,Wunderground v.1.15,2013-01-06 19:56:00,
2013-01-06 12:01:00,45.8,40.0,30.15,West,263,4.0,9.0,80,0.00,,,0.00,137,Wunderground v.1.15,2013-01-06 20:01:00,
2013-01-06 12:06:00,45.7,40.2,30.15,WSW,242,4.0,15.0,81,0.00,,,0.00,130,Wunderground v.1.15,2013-01-06 20:06:00,
2013-01-06 12:11:00,45.7,40.2,30.15,West,269,10.0,14.0,81,0.00,,,0.00,127,Wunderground v.1.15,2013-01-06 20:11:00,
2013-01-06 12:13:00,45.7,40.2,30.15,West,262,7.0,14.0,81,0.00,,,0.00,132,Wunderground v.1.15,2013-01-06 20:13:00,
2013-01-06 12:18:00,45.7,40.5,30.15,WSW,254,9.0,14.0,82,0.00,,,0.00,128,Wunderground v.1.15,2013-01-06 20:18:00,
2013-01-06 12:23:00,45.7,40.5,30.15,West,259,10.0,13.0,82,0.00,,,0.00,116,Wunderground v.1.15,2013-01-06 20:23:00,
2013-01-06 12:28:00,45.7,40.5,30.15,WSW,248,9.0,13.0,82,0.00,,,0.00,135,Wunderground v.1.15,2013-01-06 20:28:00,
2013-01-06 12:33:00,45.9,40.4,30.15,West,265,7.0,13.0,81,0.00,,,0.00,125,Wunderground v.1.15,2013-01-06 20:33:00,
2013-01-06 12:38:00,45.9,40.4,30.15,West,273,12.0,14.0,81,0.00,,,0.00,109,Wunderground v.1.15,2013-01-06 20:38:00,
2013-01-06 12:43:00,46.0,40.5,30.15,West,275,9.0,17.0,81,0.00,,,0.00,81,Wunderground v.1.15,2013-01-06 20:43:00,
2013-01-06 12:48:00,45.8,40.6,30.15,WSW,238,6.0,18.0,82,0.00,,,0.00,77,Wunderground v.1.15,2013-01-06 20:48:00,
2013-01-06 12:53:00,45.5,40.3,30.14,WSW,238,16.0,16.0,82,0.00,,,0.00,84,Wunderground v.1.15,2013-01-06 20:53:00,
2013-01-06 12:58:00,45.4,40.5,30.14,WSW,249,12.0,19.0,83,0.00,,,0.00,97,Wunderground v.1.15,2013-01-06 20:58:00,
2013-01-06 13:01:00,45.3,40.4,30.14,SW,218,10.0,15.0,83,0.00,,,0.00,88,Wunderground v.1.15,2013-01-06 21:01:00,
2013-01-06 13:06:00,45.4,40.8,30.14,West,266,5.0,15.0,84,0.00,,,0.00,98,Wunderground v.1.15,2013-01-06 21:06:00,
2013-01-06 13:11:00,45.5,40.6,30.14,West,265,6.0,9.0,83,0.00,,,0.00,100,Wunderground v.1.15,2013-01-06 21:11:00,
2013-01-06 13:16:00,45.6,40.4,30.14,West,270,7.0,11.0,82,0.00,,,0.00,90,Wunderground v.1.15,2013-01-06 21:16:00,
2013-01-06 13:21:00,45.7,40.5,30.14,SW,236,12.0,15.0,82,0.00,,,0.00,86,Wunderground v.1.15,2013-01-06 21:21:00,
2013-01-06 13:26:00,45.8,40.6,30.14,SW,221,10.0,15.0,82,0.00,,,0.00,76,Wunderground v.1.15,2013-01-06 21:26:00,
2013-01-06 13:31:00,45.8,40.6,30.14,West,280,14.0,17.0,82,0.00,,,0.00,53,Wunderground v.1.15,2013-01-06 21:31:00,
2013-01-06 13:36:00,45.7,40.5,30.14,West,263,13.0,19.0,82,0.00,,,0.00,51,Wunderground v.1.15,2013-01-06 21:36:00,
2013-01-06 13:41:00,45.7,40.8,30.14,WSW,244,10.0,17.0,83,0.00,,,0.00,60,Wunderground v.1.15,2013-01-06 21:41:00,
2013-01-06 13:46:00,45.6,41.0,30.14,West,275,9.0,21.0,84,0.00,,,0.00,56,Wunderground v.1.15,2013-01-06 21:46:00,
2013-01-06 13:51:00,45.4,40.8,30.13,WSW,258,15.0,15.0,84,0.00,,,0.00,56,Wunderground v.1.15,2013-01-06 21:51:00,
2013-01-06 13:56:00,45.4,40.8,30.13,WSW,248,9.0,15.0,84,0.00,,,0.00,58,Wunderground v.1.15,2013-01-06 21:56:00,
2013-01-06 14:01:00,45.4,40.8,30.13,WSW,248,6.0,9.0,84,0.00,,,0.00,49,Wunderground v.1.15,2013-01-06 22:01:00,
2013-01-06 14:06:00,45.5,40.9,30.13,West,265,10.0,10.0,84,0.00,,,0.00,47,Wunderground v.1.15,2013-01-06 22:06:00,
2013-01-06 14:11:00,45.5,40.9,30.14,WSW,256,6.0,14.0,84,0.00,,,0.00,44,Wunderground v.1.15,2013-01-06 22:11:00,
2013-01-06 14:16:00,45.6,41.0,30.14,West,270,6.0,14.0,84,0.00,,,0.00,35,Wunderground v.1.15,2013-01-06 22:16:00,
2013-01-06 14:21:00,45.7,41.1,30.14,West,267,7.0,7.0,84,0.00,,,0.00,30,Wunderground v.1.15,2013-01-06 22:21:00,
2013-01-06 14:26:00,45.8,40.9,30.14,WNW,302,2.0,8.0,83,0.00,,,0.00,26,Wunderground v.1.15,2013-01-06 22:26:00,
2013-01-06 14:31:00,45.8,40.6,30.14,West,262,7.0,12.0,82,0.00,,,0.00,23,Wunderground v.1.15,2013-01-06 22:31:00,
2013-01-06 14:36:00,45.8,40.9,30.14,West,263,5.0,12.0,83,0.00,,,0.00,25,Wunderground v.1.15,2013-01-06 22:36:00,
2013-01-06 14:41:00,45.9,40.7,30.14,West,270,9.0,11.0,82,0.00,,,0.00,26,Wunderground v.1.15,2013-01-06 22:41:00,
2013-01-06 14:46:00,45.9,41.0,30.13,West,263,9.0,11.0,83,0.00,,,0.00,25,Wunderground v.1.15,2013-01-06 22:46:00,
2013-01-06 14:51:00,45.9,41.0,30.13,West,276,15.0,15.0,83,0.00,,,0.00,21,Wunderground v.1.15,2013-01-06 22:51:00,
2013-01-06 14:56:00,45.9,40.7,30.13,West,272,7.0,15.0,82,0.00,,,0.00,19,Wunderground v.1.15,2013-01-06 22:56:00,
2013-01-06 15:01:00,45.9,41.0,30.12,SW,226,7.0,11.0,83,0.00,,,0.00,21,Wunderground v.1.15,2013-01-06 23:01:00,
2013-01-06 15:06:00,46.0,40.8,30.12,SW,236,9.0,14.0,82,0.00,,,0.00,19,Wunderground v.1.15,2013-01-06 23:06:00,
2013-01-06 15:11:00,46.0,41.1,30.12,WSW,255,7.0,11.0,83,0.00,,,0.00,18,Wunderground v.1.15,2013-01-06 23:11:00,
2013-01-06 15:16:00,46.0,40.8,30.12,WSW,252,6.0,13.0,82,0.00,,,0.00,16,Wunderground v.1.15,2013-01-06 23:16:00,
2013-01-06 15:21:00,46.1,40.9,30.11,West,272,9.0,11.0,82,0.00,,,0.00,16,Wunderground v.1.15,2013-01-06 23:21:00,
2013-01-06 15:26:00,46.0,40.8,30.11,SW,220,5.0,15.0,82,0.00,,,0.00,16,Wunderground v.1.15,2013-01-06 23:26:00,
2013-01-06 15:31:00,46.1,40.9,30.11,West,264,6.0,8.0,82,0.00,,,0.00,14,Wunderground v.1.15,2013-01-06 23:31:00,
2013-01-06 15:36:00,46.1,40.9,30.11,SW,233,4.0,10.0,82,0.00,,,0.00,14,Wunderground v.1.15,2013-01-06 23:36:00,
2013-01-06 15:41:00,46.1,40.9,30.11,West,262,4.0,6.0,82,0.00,,,0.00,14,Wunderground v.1.15,2013-01-06 23:41:00,
2013-01-06 15:46:00,46.1,40.9,30.11,West,259,7.0,10.0,82,0.00,,,0.00,14,Wunderground v.1.15,2013-01-06 23:46:00,
2013-01-06 15:51:00,46.1,40.9,30.11,WSW,250,5.0,6.0,82,0.00,,,0.00,14,Wunderground v.1.15,2013-01-06 23:51:00,
2013-01-06 15:56:00,46.0,41.1,30.11,WSW,253,4.0,9.0,83,0.00,,,0.00,11,Wunderground v.1.15,2013-01-06 23:56:00,
2013-01-06 16:01:00,46.0,41.1,30.11,West,266,3.0,9.0,83,0.00,,,0.00,9,Wunderground v.1.15,2013-01-07 00:01:00,
2013-01-06 16:06:00,46.1,41.2,30.11,West,260,7.0,9.0,83,0.00,,,0.00,7,Wunderground v.1.15,2013-01-07 00:06:00,
2013-01-06 16:11:00,46.1,40.9,30.12,West,265,7.0,9.0,82,0.00,,,0.00,7,Wunderground v.1.15,2013-01-07 00:11:00,
2013-01-06 16:16:00,46.2,41.0,30.12,WSW,250,5.0,12.0,82,0.00,,,0.00,0,Wunderground v.1.15,2013-01-07 00:16:00,
2013-01-06 16:21:00,46.2,41.0,30.12,WSW,254,4.0,8.0,82,0.00,,,0.00,0,Wunderground v.1.15,2013-01-07 00:21:00,
2013-01-06 16:26:00,46.2,41.0,30.11,SW,232,4.0,8.0,82,0.00,,,0.00,0,Wunderground v.1.15,2013-01-07 00:26:00,
2013-01-06 16:31:00,46.1,40.6,30.11,WSW,256,7.0,8.0,81,0.00,,,0.00,0,Wunderground v.1.15,2013-01-07 00:31:00,
2013-01-06 16:36:00,46.1,40.6,30.11,West,275,7.0,11.0,81,0.00,,,0.00,0,Wunderground v.1.15,2013-01-07 00:36:00,
2013-01-06 16:41:00,46.1,40.6,30.10,WSW,255,7.0,9.0,81,0.00,,,0.00,0,Wunderground v.1.15,2013-01-07 00:41:00,
2013-01-06 16:46:00,46.1,40.6,30.10,WSW,238,7.0,12.0,81,0.00,,,0.00,0,Wunderground v.1.15,2013-01-07 00:46:00,
2013-01-06 16:51:00,46.2,40.4,30.10,West,266,9.0,10.0,80,0.00,,,0.00,0,Wunderground v.1.15,2013-01-07 00:51:00,
2013-01-06 16:56:00,46.3,40.5,30.10,WSW,253,6.0,14.0,80,0.00,,,0.00,0,Wunderground v.1.15,2013-01-07 00:56:00,
2013-01-06 17:01:00,46.3,40.5,30.10,WSW,238,8.0,11.0,80,0.00,,,0.00,0,Wunderground v.1.15,2013-01-07 01:01:00,
2013-01-06 17:06:00,46.3,40.5,30.10,SW,217,7.0,11.0,80,0.00,,,0.00,0,Wunderground v.1.15,2013-01-07 01:06:00,
2013-01-06 17:11:00,46.3,40.5,30.10,West,268,6.0,11.0,80,0.00,,,0.00,0,Wunderground v.1.15,2013-01-07 01:11:00,
2013-01-06 17:16:00,46.3,40.5,30.09,SW,232,5.0,11.0,80,0.00,,,0.00,0,Wunderground v.1.15,2013-01-07 01:16:00,
2013-01-06 17:21:00,46.3,40.5,30.09,West,261,4.0,8.0,80,0.00,,,0.00,0,Wunderground v.1.15,2013-01-07 01:21:00,
2013-01-06 17:26:00,46.3,40.5,30.09,West,260,6.0,10.0,80,0.00,,,0.00,0,Wunderground v.1.15,2013-01-07 01:26:00,
2013-01-06 17:31:00,46.3,40.5,30.09,West,269,9.0,10.0,80,0.00,,,0.00,0,Wunderground v.1.15,2013-01-07 01:31:00,
2013-01-06 17:36:00,46.2,40.7,30.09,West,267,5.0,10.0,81,0.00,,,0.00,0,Wunderground v.1.15,2013-01-07 01:36:00,
2013-01-06 17:41:00,46.1,40.6,30.09,WSW,249,3.0,5.0,81,0.00,,,0.00,0,Wunderground v.1.15,2013-01-07 01:41:00,
2013-01-06 17:46:00,46.1,40.6,30.09,West,269,5.0,8.0,81,0.00,,,0.00,0,Wunderground v.1.15,2013-01-07 01:46:00,
2013-01-06 17:51:00,46.1,40.6,30.09,West,261,3.0,7.0,81,0.00,,,0.00,0,Wunderground v.1.15,2013-01-07 01:51:00,
2013-01-06 17:56:00,46.0,40.5,30.08,West,277,3.0,7.0,81,0.00,,,0.00,0,Wunderground v.1.15,2013-01-07 01:56:00,
2013-01-06 18:01:00,46.0,40.8,30.08,West,259,5.0,7.0,82,0.00,,,0.00,0,Wunderground v.1.15,2013-01-07 02:01:00,
2013-01-06 18:06:00,46.0,40.8,30.08,West,273,3.0,8.0,82,0.00,,,0.00,0,Wunderground v.1.15,2013-01-07 02:06:00,
2013-01-06 18:11:00,46.0,40.5,30.08,WSW,240,5.0,8.0,81,0.00,,,0.00,0,Wunderground v.1.15,2013-01-07 02:11:00,
2013-01-06 18:16:00,46.0,40.5,30.08,West,265,10.0,12.0,81,0.00,,,0.00,0,Wunderground v.1.15,2013-01-07 02:16:00,
2013-01-06 18:21:00,46.0,40.5,30.08,SW,230,7.0,10.0,81,0.00,,,0.00,0,Wunderground v.1.15,2013-01-07 02:21:00,
2013-01-06 18:26:00,46.0,40.5,30.08,West,273,7.0,11.0,81,0.00,,,0.00,0,Wunderground v.1.15,2013-01-07 02:26:00,
2013-01-06 18:31:00,45.9,40.4,30.08,WSW,250,3.0,9.0,81,0.00,,,0.00,0,Wunderground v.1.15,2013-01-07 02:31:00,
2013-01-06 18:36:00,45.9,40.4,30.08,WSW,254,4.0,12.0,81,0.00,,,0.00,0,Wunderground v.1.15,2013-01-07 02:36:00,
2013-01-06 18:41:00,46.0,40.2,30.08,WNW,287,7.0,11.0,80,0.00,,,0.00,0,Wunderground v.1.15,2013-01-07 02:41:00,
2013-01-06 18:46:00,46.1,40.3,30.08,West,262,11.0,13.0,80,0.00,,,0.00,0,Wunderground v.1.15,2013-01-07 02:46:00,
2013-01-06 18:51:00,46.1,39.9,30.09,West,273,9.0,16.0,79,0.00,,,0.00,0,Wunderground v.1.15,2013-01-07 02:51:00,
2013-01-06 18:56:00,46.1,39.9,30.09,West,263,4.0,19.0,79,0.00,,,0.00,0,Wunderground v.1.15,2013-01-07 02:56:00,
2013-01-06 19:01:00,46.1,39.9,30.08,West,263,4.0,10.0,79,0.00,,,0.00,0,Wunderground v.1.15,2013-01-07 03:01:00,
2013-01-06 19:06:00,46.0,39.9,30.08,WSW,250,4.0,10.0,79,0.00,,,0.00,0,Wunderground v.1.15,2013-01-07 03:06:00,
2013-01-06 19:10:00,46.0,39.2,30.08,WSW,256,8.0,14.0,77,0.00,,,0.00,0,Wunderground v.1.15,2013-01-07 03:10:00,
2013-01-06 19:15:00,46.0,39.5,30.08,WNW,288,8.0,14.0,78,0.00,,,0.00,0,Wunderground v.1.15,2013-01-07 03:15:00,
2013-01-06 19:20:00,46.0,39.2,30.08,WSW,248,8.0,10.0,77,0.00,,,0.00,0,Wunderground v.1.15,2013-01-07 03:20:00,
2013-01-06 19:25:00,46.0,39.5,30.08,WSW,238,4.0,11.0,78,0.00,,,0.00,0,Wunderground v.1.15,2013-01-07 03:25:00,
2013-01-06 19:30:00,46.0,39.2,30.08,West,281,10.0,14.0,77,0.00,,,0.00,0,Wunderground v.1.15,2013-01-07 03:30:00,
2013-01-06 19:35:00,46.0,38.9,30.08,SW,231,10.0,18.0,76,0.00,,,0.00,0,Wunderground v.1.15,2013-01-07 03:35:00,
2013-01-06 19:40:00,46.0,39.2,30.08,WSW,256,7.0,10.0,77,0.00,,,0.00,0,Wunderground v.1.15,2013-01-07 03:40:00,
2013-01-06 19:45:00,46.0,39.2,30.08,WSW,254,6.0,11.0,77,0.00,,,0.00,0,Wunderground v.1.15,2013-01-07 03:45:00,
2013-01-06 19:50:00,45.9,39.1,30.08,West,262,6.0,9.0,77,0.00,,,0.00,0,Wunderground v.1.15,2013-01-07 03:50:00,
2013-01-06 19:55:00,45.8,39.3,30.08,WSW,251,9.0,12.0,78,0.00,,,0.00,0,Wunderground v.1.15,2013-01-07 03:55:00,
2013-01-06 20:00:00,45.8,39.7,30.08,West,277,6.0,8.0,79,0.00,,,0.00,0,Wunderground v.1.15,2013-01-07 04:00:00,
2013-01-06 20:05:00,45.6,39.5,30.08,West,259,10.0,12.0,79,0.00,,,0.00,0,Wunderground v.1.15,2013-01-07 04:05:00,
2013-01-06 20:10:00,45.5,39.0,30.08,WSW,244,8.0,11.0,78,0.00,,,0.00,0,Wunderground v.1.15,2013-01-07 04:10:00,
2013-01-06 20:15:00,45.5,39.4,30.08,SW,234,8.0,11.0,79,0.00,,,0.00,0,Wunderground v.1.15,2013-01-07 04:15:00,
2013-01-06 20:20:00,45.4,39.6,30.08,West,273,7.0,7.0,80,0.00,,,0.00,0,Wunderground v.1.15,2013-01-07 04:20:00,
2013-01-06 20:25:00,45.2,39.4,30.08,West,267,5.0,11.0,80,0.00,,,0.00,0,Wunderground v.1.15,2013-01-07 04:25:00,
2013-01-06 20:30:00,45.1,39.6,30.08,WSW,254,2.0,6.0,81,0.00,,,0.00,0,Wunderground v.1.15,2013-01-07 04:30:00,
2013-01-06 20:35:00,45.0,39.8,30.07,SW,221,3.0,8.0,82,0.00,,,0.00,0,Wunderground v.1.15,2013-01-07 04:35:00,
2013-01-06 20:40:00,44.7,39.9,30.07,West,260,6.0,7.0,83,0.00,,,0.00,0,Wunderground v.1.15,2013-01-07 04:40:00,
2013-01-06 20:45:00,44.5,40.0,30.07,WSW,248,8.0,8.0,84,0.00,,,0.00,0,Wunderground v.1.15,2013-01-07 04:45:00,
2013-01-06 20:50:00,44.3,39.8,30.07,SSW,211,6.0,6.0,84,0.00,,,0.00,0,Wunderground v.1.15,2013-01-07 04:50:00,
2013-01-06 20:55:00,44.2,40.0,30.07,SW,215,3.0,8.0,85,0.00,,,0.00,0,Wunderground v.1.15,2013-01-07 04:55:00,
2013-01-06 21:00:00,44.1,40.2,30.07,SSW,209,3.0,4.0,86,0.00,,,0.00,0,Wunderground v.1.15,2013-01-07 05:00:00,
2013-01-06 21:01:00,44.1,40.2,30.07,SSW,196,3.0,4.0,86,0.00,,,0.00,0,Wunderground v.1.15,2013-01-07 05:01:00,
2013-01-06 21:06:00,44.0,40.1,30.07,West,267,5.0,6.0,86,0.00,,,0.00,0,Wunderground v.1.15,2013-01-07 05:06:00,
2013-01-06 21:11:00,43.9,40.3,30.06,SSW,210,7.0,8.0,87,0.00,,,0.00,0,Wunderground v.1.15,2013-01-07 05:11:00,
2013-01-06 21:16:00,43.8,40.2,30.06,WSW,248,6.0,8.0,87,0.00,,,0.00,0,Wunderground v.1.15,2013-01-07 05:16:00,
2013-01-06 21:21:00,43.7,40.1,30.06,SW,227,7.0,9.0,87,0.00,,,0.00,0,Wunderground v.1.15,2013-01-07 05:21:00,
2013-01-06 21:26:00,43.6,40.0,30.06,SW,232,7.0,9.0,87,0.00,,,0.00,0,Wunderground v.1.15,2013-01-07 05:26:00,
2013-01-06 21:31:00,43.5,39.9,30.06,West,267,4.0,10.0,87,0.00,,,0.00,0,Wunderground v.1.15,2013-01-07 05:31:00,
2013-01-06 21:35:00,43.5,39.9,30.05,West,260,5.0,10.0,87,0.00,,,0.00,0,Wunderground v.1.15,2013-01-07 05:35:00,
2013-01-06 21:41:00,43.4,39.8,30.05,SSW,204,7.0,9.0,87,0.00,,,0.00,0,Wunderground v.1.15,2013-01-07 05:41:00,
2013-01-06 21:46:00,43.4,39.8,30.05,West,267,7.0,12.0,87,0.00,,,0.00,0,Wunderground v.1.15,2013-01-07 05:46:00,
2013-01-06 21:50:00,43.4,39.8,30.05,SW,221,6.0,6.0,87,0.00,,,0.00,0,Wunderground v.1.15,2013-01-07 05:50:00,
2013-01-06 21:55:00,43.3,39.7,30.05,WSW,254,2.0,9.0,87,0.00,,,0.00,0,Wunderground v.1.15,2013-01-07 05:55:00,
2013-01-06 22:00:00,43.3,40.0,30.04,West,262,2.0,4.0,88,0.00,,,0.00,0,Wunderground v.1.15,2013-01-07 06:00:00,
2013-01-06 22:05:00,43.3,40.0,30.04,SW,219,5.0,7.0,88,0.00,,,0.00,0,Wunderground v.1.15,2013-01-07 06:05:00,
2013-01-06 22:10:00,43.1,39.8,30.04,SSW,205,9.0,11.0,88,0.00,,,0.00,0,Wunderground v.1.15,2013-01-07 06:10:00,
2013-01-06 22:15:00,42.8,39.5,30.04,WSW,254,6.0,11.0,88,0.00,,,0.00,0,Wunderground v.1.15,2013-01-07 06:15:00,
2013-01-06 22:20:00,42.5,39.2,30.04,SSW,196,4.0,8.0,88,0.00,,,0.00,0,Wunderground v.1.15,2013-01-07 06:20:00,
2013-01-06 22:25:00,42.4,39.1,30.04,WSW,250,5.0,9.0,88,0.00,,,0.00,0,Wunderground v.1.15,2013-01-07 06:25:00,
2013-01-06 22:30:00,42.2,38.9,30.04,WSW,247,4.0,6.0,88,0.00,,,0.00,0,Wunderground v.1.15,2013-01-07 06:30:00,
2013-01-06 22:35:00,42.2,38.9,30.04,SW,221,5.0,6.0,88,0.00,,,0.00,0,Wunderground v.1.15,2013-01-07 06:35:00,
2013-01-06 22:40:00,42.1,39.1,30.04,South,187,4.0,6.0,89,0.00,,,0.00,0,Wunderground v.1.15,2013-01-07 06:40:00,
2013-01-06 22:45:00,42.1,39.1,30.03,South,186,8.0,8.0,89,0.00,,,0.00,0,Wunderground v.1.15,2013-01-07 06:45:00,
2013-01-06 22:50:00,42.0,39.0,30.03,SW,232,4.0,7.0,89,0.00,,,0.00,0,Wunderground v.1.15,2013-01-07 06:50:00,
2013-01-06 22:55:00,41.9,38.9,30.02,SW,217,1.0,7.0,89,0.00,,,0.00,0,Wunderground v.1.15,2013-01-07 06:55:00,
2013-01-06 23:00:00,41.9,38.9,30.02,South,176,2.0,4.0,89,0.00,,,0.01,0,Wunderground v.1.15,2013-01-07 07:00:00,
2013-01-06 23:05:00,41.9,39.2,30.02,South,177,3.0,5.0,90,0.00,,,0.01,0,Wunderground v.1.15,2013-01-07 07:05:00,
2013-01-06 23:10:00,41.8,39.1,30.02,South,176,1.0,2.0,90,0.00,,,0.01,0,Wunderground v.1.15,2013-01-07 07:10:00,
2013-01-06 23:15:00,41.8,39.1,30.01,South,176,0.0,3.0,90,0.00,,,0.01,0,Wunderground v.1.15,2013-01-07 07:15:00,
2013-01-06 23:20:00,41.9,39.2,30.01,South,175,1.0,2.0,90,0.00,,,0.01,0,Wunderground v.1.15,2013-01-07 07:20:00,
2013-01-06 23:25:00,41.8,39.1,30.01,South,175,0.0,3.0,90,0.00,,,0.01,0,Wunderground v.1.15,2013-01-07 07:25:00,
2013-01-06 23:30:00,41.8,39.1,30.01,South,174,0.0,1.0,90,0.00,,,0.01,0,Wunderground v.1.15,2013-01-07 07:30:00,
2013-01-06 23:35:00,41.9,39.5,30.01,SSW,210,3.0,3.0,91,0.00,,,0.01,0,Wunderground v.1.15,2013-01-07 07:35:00,
2013-01-06 23:40:00,41.9,39.5,30.01,SSW,212,0.0,2.0,91,0.00,,,0.01,0,Wunderground v.1.15,2013-01-07 07:40:00,
2013-01-06 23:45:00,41.9,39.5,30.01,SSW,210,0.0,2.0,91,0.00,,,0.01,0,Wunderground v.1.15,2013-01-07 07:45:00,
2013-01-06 23:50:00,41.9,39.5,30.01,SSW,205,1.0,3.0,91,0.00,,,0.01,0,Wunderground v.1.15,2013-01-07 07:50:00,
2013-01-06 23:55:00,41.9,39.5,30.01,SSW,205,1.0,3.0,91,0.00,,,0.00,0,Wunderground v.1.15,2013-01-07 07:55:00,